EIN243 EIDW-EGKK

Flight info

Callsign EIN243
Flight time 1h 11m
Altitude 33000
Route ENDEQ3J ENDEQ Q36 EPOXI L15 KEPAD L151 DISIT DISIT1G
Aircraft A333/H-SDE3GHIJ2J3J5M1RVWXY/LB2D1

Departure

Time 2026-05-04 19:05
Airport Dublin Airport (EIDW)

Arrival

Time 2026-05-04 20:16
Airport London Gatwick Airport (EGKK)
Time Latitude Longitude Altitude Speed Heading
2026-05-04 18:32 53.42469 -6.24346 230 ft 0 kts 134°
2026-05-04 18:55 53.42480 -6.24365 231 ft 2 kts 136°
2026-05-04 18:56 53.42492 -6.24384 233 ft 2 kts 139°
2026-05-04 18:56 53.42505 -6.24401 232 ft 2 kts 150°
2026-05-04 18:56 53.42521 -6.24409 233 ft 2 kts 196°
2026-05-04 18:56 53.42531 -6.24401 231 ft 1 kts 213°
2026-05-04 18:57 53.42532 -6.24400 231 ft 0 kts 213°
2026-05-04 18:57 53.42532 -6.24401 231 ft 0 kts 213°
2026-05-04 18:59 53.42504 -6.24435 232 ft 11 kts 220°
2026-05-04 18:59 53.42444 -6.24563 229 ft 17 kts 242°
2026-05-04 18:59 53.42444 -6.24744 229 ft 19 kts 320°
2026-05-04 18:59 53.42584 -6.24854 231 ft 25 kts 339°
2026-05-04 19:00 53.42741 -6.25001 231 ft 25 kts 327°
2026-05-04 19:00 53.42813 -6.25137 229 ft 14 kts 316°
2026-05-04 19:00 53.42905 -6.25213 229 ft 15 kts 337°
2026-05-04 19:00 53.43005 -6.25287 229 ft 17 kts 336°
2026-05-04 19:01 53.43115 -6.25367 231 ft 18 kts 336°
2026-05-04 19:01 53.43202 -6.25316 229 ft 15 kts 68°
2026-05-04 19:01 53.43219 -6.25140 229 ft 16 kts 85°
2026-05-04 19:01 53.43216 -6.24935 229 ft 21 kts 95°
2026-05-04 19:02 53.43201 -6.24685 229 ft 22 kts 97°
2026-05-04 19:02 53.43194 -6.24470 229 ft 16 kts 74°
2026-05-04 19:02 53.43286 -6.24403 229 ft 15 kts
2026-05-04 19:02 53.43335 -6.24279 228 ft 14 kts 91°
2026-05-04 19:03 53.43327 -6.24112 228 ft 15 kts 94°
2026-05-04 19:03 53.43323 -6.23941 228 ft 14 kts 84°
2026-05-04 19:03 53.43391 -6.23858 226 ft 15 kts 10°
2026-05-04 19:03 53.43491 -6.23914 224 ft 16 kts 282°
2026-05-04 19:04 53.43494 -6.23977 223 ft 0 kts 275°
2026-05-04 19:04 53.43497 -6.24041 221 ft 27 kts 275°
2026-05-04 19:04 53.43536 -6.24756 229 ft 94 kts 275°
2026-05-04 19:04 53.43612 -6.26184 236 ft 150 kts 274°
2026-05-04 19:05 53.43699 -6.28084 575 ft 172 kts 274°
2026-05-04 19:05 53.43806 -6.30163 1128 ft 186 kts 277°
2026-05-04 19:05 53.44176 -6.32208 1682 ft 190 kts 307°
2026-05-04 19:05 53.45151 -6.33815 2118 ft 203 kts 320°
2026-05-04 19:06 53.46331 -6.35123 2765 ft 205 kts 342°
2026-05-04 19:06 53.47729 -6.35389 3482 ft 206 kts 359°
2026-05-04 19:06 53.49173 -6.35276 3940 ft 208 kts
2026-05-04 19:06 53.50625 -6.34926 4050 ft 214 kts 15°
2026-05-04 19:07 53.51895 -6.33622 4197 ft 219 kts 46°
2026-05-04 19:07 53.52605 -6.31260 4483 ft 244 kts 77°
2026-05-04 19:07 53.52699 -6.28291 4963 ft 267 kts 90°
2026-05-04 19:07 53.52621 -6.25111 5738 ft 275 kts 92°
2026-05-04 19:08 53.52530 -6.21855 6609 ft 280 kts 92°
2026-05-04 19:08 53.52451 -6.18555 7522 ft 283 kts 91°
2026-05-04 19:08 53.52382 -6.15275 8473 ft 284 kts 91°
2026-05-04 19:08 53.52319 -6.11932 9409 ft 287 kts 91°
2026-05-04 19:09 53.52240 -6.08544 10289 ft 292 kts 94°
2026-05-04 19:09 53.51922 -6.05044 10706 ft 313 kts 101°
2026-05-04 19:09 53.51511 -6.02042 10957 ft 331 kts 103°
2026-05-04 19:09 53.51454 -6.01644 11000 ft 333 kts 103°
2026-05-04 19:10 53.50938 -5.98138 11489 ft 345 kts 103°
2026-05-04 19:10 53.50394 -5.94451 12190 ft 349 kts 103°
2026-05-04 19:10 53.49810 -5.90470 13001 ft 352 kts 104°
2026-05-04 19:11 53.49223 -5.86454 13796 ft 356 kts 104°
2026-05-04 19:11 53.48671 -5.82426 14446 ft 361 kts 102°
2026-05-04 19:11 53.48145 -5.78291 15185 ft 362 kts 102°
2026-05-04 19:11 53.47625 -5.74140 15932 ft 363 kts 101°
2026-05-04 19:12 53.47101 -5.69968 16629 ft 366 kts 101°
2026-05-04 19:12 53.46035 -5.61532 17997 ft 372 kts 101°
2026-05-04 19:12 53.45499 -5.57312 18618 ft 375 kts 101°
2026-05-04 19:13 53.44948 -5.53024 19195 ft 377 kts 102°
2026-05-04 19:13 53.44124 -5.48824 19699 ft 383 kts 113°
2026-05-04 19:13 53.42904 -5.44762 19947 ft 396 kts 117°
2026-05-04 19:13 53.41550 -5.40665 20235 ft 405 kts 118°
2026-05-04 19:14 53.40182 -5.36577 20673 ft 409 kts 118°
2026-05-04 19:14 53.38787 -5.32397 21178 ft 412 kts 118°
2026-05-04 19:14 53.37387 -5.28189 21678 ft 415 kts 118°
2026-05-04 19:14 53.35973 -5.23934 22175 ft 417 kts 118°
2026-05-04 19:15 53.34573 -5.19724 22656 ft 420 kts 118°
2026-05-04 19:15 53.33148 -5.15440 23155 ft 423 kts 117°
2026-05-04 19:15 53.31711 -5.11127 23626 ft 425 kts 117°
2026-05-04 19:15 53.30265 -5.06794 24036 ft 427 kts 118°
2026-05-04 19:16 53.28801 -5.02414 24390 ft 430 kts 118°
2026-05-04 19:16 53.27333 -4.98028 24745 ft 433 kts 118°
2026-05-04 19:16 53.25856 -4.93623 25140 ft 436 kts 118°
2026-05-04 19:16 53.24386 -4.89248 25503 ft 438 kts 117°
2026-05-04 19:17 53.22888 -4.84799 25873 ft 440 kts 117°
2026-05-04 19:17 53.21381 -4.80327 26244 ft 443 kts 117°
2026-05-04 19:17 53.19866 -4.75842 26600 ft 445 kts 117°
2026-05-04 19:17 53.18338 -4.71328 26958 ft 447 kts 117°
2026-05-04 19:18 53.17318 -4.68317 27182 ft 449 kts 117°
2026-05-04 19:18 53.15777 -4.63778 27545 ft 451 kts 117°
2026-05-04 19:18 53.13735 -4.57776 28275 ft 448 kts 117°
2026-05-04 19:18 53.12712 -4.54775 28564 ft 448 kts 117°
2026-05-04 19:19 53.11171 -4.50256 28879 ft 451 kts 117°
2026-05-04 19:19 53.09608 -4.45683 29170 ft 453 kts 117°
2026-05-04 19:19 53.08039 -4.41103 29482 ft 456 kts 117°
2026-05-04 19:19 53.06461 -4.36506 29803 ft 458 kts 117°
2026-05-04 19:20 53.04895 -4.31951 30111 ft 460 kts 117°
2026-05-04 19:20 53.03301 -4.27323 30374 ft 462 kts 117°
2026-05-04 19:20 53.01695 -4.22667 30621 ft 464 kts 117°
2026-05-04 19:20 53.00081 -4.17999 30872 ft 466 kts 117°
2026-05-04 19:21 52.98464 -4.13333 31200 ft 466 kts 117°
2026-05-04 19:21 52.96867 -4.08732 31609 ft 464 kts 117°
2026-05-04 19:21 52.95253 -4.04093 31989 ft 463 kts 117°
2026-05-04 19:21 52.93633 -3.99444 32403 ft 461 kts 117°
2026-05-04 19:22 52.92036 -3.94871 32910 ft 457 kts 117°
2026-05-04 19:22 52.90465 -3.90377 33095 ft 455 kts 117°
2026-05-04 19:22 52.88879 -3.85850 33063 ft 451 kts 117°
2026-05-04 19:23 52.85728 -3.76876 33063 ft 450 kts 117°
2026-05-04 19:23 52.82565 -3.67898 33061 ft 451 kts 117°
2026-05-04 19:24 52.79415 -3.58994 33057 ft 451 kts 117°
2026-05-04 19:24 52.76235 -3.50034 33063 ft 451 kts 117°
2026-05-04 19:25 52.73073 -3.41160 33060 ft 451 kts 117°
2026-05-04 19:25 52.69879 -3.32226 33062 ft 451 kts 118°
2026-05-04 19:26 52.66679 -3.23306 33056 ft 452 kts 118°
2026-05-04 19:26 52.63490 -3.14452 33046 ft 452 kts 118°
2026-05-04 19:27 52.60272 -3.05548 33046 ft 452 kts 118°
2026-05-04 19:27 52.57048 -2.96657 33050 ft 452 kts 119°
2026-05-04 19:28 52.53834 -2.87824 33053 ft 454 kts 119°
2026-05-04 19:28 52.50582 -2.78921 33046 ft 454 kts 119°
2026-05-04 19:29 52.47318 -2.70010 33049 ft 455 kts 120°
2026-05-04 19:29 52.44051 -2.61129 33045 ft 457 kts 121°
2026-05-04 19:30 52.40757 -2.52205 32227 ft 456 kts 121°
2026-05-04 19:30 52.39124 -2.47793 31408 ft 459 kts 121°
2026-05-04 19:30 52.37463 -2.43312 30517 ft 462 kts 122°
2026-05-04 19:30 52.35786 -2.38797 29742 ft 463 kts 122°
2026-05-04 19:31 52.34117 -2.34308 29015 ft 460 kts 122°
2026-05-04 19:31 52.32454 -2.29847 28324 ft 457 kts 122°
2026-05-04 19:31 52.30805 -2.25428 27669 ft 453 kts 123°
2026-05-04 19:31 52.29169 -2.21053 27038 ft 450 kts 123°
2026-05-04 19:32 52.27541 -2.16707 26408 ft 447 kts 123°
2026-05-04 19:32 52.25921 -2.12389 25796 ft 443 kts 124°
2026-05-04 19:32 52.24334 -2.08167 25280 ft 438 kts 124°
2026-05-04 19:32 52.22741 -2.03937 24694 ft 434 kts 124°
2026-05-04 19:33 52.21163 -1.99752 24109 ft 432 kts 124°
2026-05-04 19:33 52.19591 -1.95593 23506 ft 429 kts 125°
2026-05-04 19:33 52.18026 -1.91458 22794 ft 427 kts 124°
2026-05-04 19:33 52.16490 -1.87406 22172 ft 423 kts 124°
2026-05-04 19:34 52.14947 -1.83341 21588 ft 419 kts 124°
2026-05-04 19:34 52.13420 -1.79325 20993 ft 414 kts 124°
2026-05-04 19:34 52.11920 -1.75390 20387 ft 410 kts 124°
2026-05-04 19:34 52.10236 -1.71685 19823 ft 404 kts 135°
2026-05-04 19:35 52.08109 -1.68772 19228 ft 397 kts 147°
2026-05-04 19:35 52.05819 -1.66275 18644 ft 394 kts 148°
2026-05-04 19:35 52.03525 -1.63869 18026 ft 391 kts 149°
2026-05-04 19:35 52.01244 -1.61480 17338 ft 389 kts 148°
2026-05-04 19:36 51.98979 -1.59100 16677 ft 386 kts 148°
2026-05-04 19:36 51.96734 -1.56736 16044 ft 383 kts 148°
2026-05-04 19:36 51.94507 -1.54390 15454 ft 381 kts 148°
2026-05-04 19:36 51.92313 -1.52078 15121 ft 378 kts 148°
2026-05-04 19:37 51.90105 -1.49752 15049 ft 379 kts 148°
2026-05-04 19:37 51.87885 -1.47417 15045 ft 379 kts 148°
2026-05-04 19:37 51.85673 -1.45091 15046 ft 379 kts 148°
2026-05-04 19:37 51.83454 -1.42761 15047 ft 380 kts 148°
2026-05-04 19:38 51.81263 -1.40463 15048 ft 380 kts 148°
2026-05-04 19:38 51.79084 -1.38181 15046 ft 380 kts 147°
2026-05-04 19:38 51.76869 -1.35862 15048 ft 379 kts 147°
2026-05-04 19:38 51.74648 -1.33541 15048 ft 379 kts 147°
2026-05-04 19:39 51.72436 -1.31232 15047 ft 378 kts 147°
2026-05-04 19:39 51.70220 -1.28922 15045 ft 379 kts 147°
2026-05-04 19:39 51.68027 -1.26637 15021 ft 379 kts 147°
2026-05-04 19:39 51.65817 -1.24338 14957 ft 378 kts 147°
2026-05-04 19:40 51.63611 -1.22046 14402 ft 377 kts 147°
2026-05-04 19:40 51.61406 -1.19757 14008 ft 375 kts 147°
2026-05-04 19:40 51.59212 -1.17484 13935 ft 374 kts 147°
2026-05-04 19:40 51.57050 -1.15245 13786 ft 374 kts 147°
2026-05-04 19:41 51.54859 -1.12978 13546 ft 373 kts 147°
2026-05-04 19:41 51.52673 -1.10720 13326 ft 371 kts 147°
2026-05-04 19:41 51.50538 -1.08517 13121 ft 370 kts 147°
2026-05-04 19:41 51.48363 -1.06275 12905 ft 368 kts 147°
2026-05-04 19:42 51.46201 -1.04049 12694 ft 367 kts 147°
2026-05-04 19:42 51.44053 -1.01840 12484 ft 366 kts 147°
2026-05-04 19:42 51.41913 -0.99642 12280 ft 365 kts 147°
2026-05-04 19:42 51.39778 -0.97451 12083 ft 364 kts 148°
2026-05-04 19:43 51.37673 -0.95293 11859 ft 351 kts 148°
2026-05-04 19:43 51.35682 -0.93255 11689 ft 337 kts 148°
2026-05-04 19:43 51.33742 -0.91269 11494 ft 324 kts 148°
2026-05-04 19:43 51.31874 -0.89362 11317 ft 313 kts 147°
2026-05-04 19:44 51.30066 -0.87517 11124 ft 302 kts 147°
2026-05-04 19:44 51.28317 -0.85733 10933 ft 293 kts 147°
2026-05-04 19:44 51.26632 -0.84016 10751 ft 289 kts 147°
2026-05-04 19:44 51.24933 -0.82286 10554 ft 288 kts 147°
2026-05-04 19:45 51.23241 -0.80564 10354 ft 287 kts 148°
2026-05-04 19:45 51.21554 -0.78850 10145 ft 286 kts 148°
2026-05-04 19:45 51.19878 -0.77148 10012 ft 286 kts 148°
2026-05-04 19:45 51.18197 -0.75443 9997 ft 286 kts 148°
2026-05-04 19:46 51.16539 -0.73763 9996 ft 286 kts 148°
2026-05-04 19:46 51.14861 -0.72063 9988 ft 286 kts 148°
2026-05-04 19:46 51.13183 -0.70367 9997 ft 285 kts 148°
2026-05-04 19:46 51.11511 -0.68677 9994 ft 284 kts 148°
2026-05-04 19:47 51.09841 -0.66989 9993 ft 284 kts 148°
2026-05-04 19:47 51.08172 -0.65305 9993 ft 284 kts 148°
2026-05-04 19:47 51.06516 -0.63584 9978 ft 284 kts 143°
2026-05-04 19:47 51.05122 -0.61356 9990 ft 285 kts 125°
2026-05-04 19:48 51.04137 -0.58656 9989 ft 286 kts 118°
2026-05-04 19:48 51.03253 -0.55823 9972 ft 286 kts 116°
2026-05-04 19:48 51.02379 -0.52973 9977 ft 286 kts 116°
2026-05-04 19:48 51.01509 -0.50153 9976 ft 287 kts 117°
2026-05-04 19:49 51.00627 -0.47314 9976 ft 287 kts 117°
2026-05-04 19:49 50.99740 -0.44476 9969 ft 287 kts 117°
2026-05-04 19:49 50.98848 -0.41634 9972 ft 287 kts 117°
2026-05-04 19:49 50.97955 -0.38793 9971 ft 286 kts 117°
2026-05-04 19:50 50.97062 -0.35961 9970 ft 286 kts 117°
2026-05-04 19:50 50.96181 -0.33170 9969 ft 287 kts 117°
2026-05-04 19:50 50.95285 -0.30334 9967 ft 287 kts 117°
2026-05-04 19:50 50.94389 -0.27502 9972 ft 287 kts 118°
2026-05-04 19:51 50.93493 -0.24673 9968 ft 286 kts 117°
2026-05-04 19:51 50.92598 -0.21852 9961 ft 286 kts 117°
2026-05-04 19:51 50.91702 -0.19032 9969 ft 286 kts 117°
2026-05-04 19:51 50.90805 -0.16210 9969 ft 284 kts 117°
2026-05-04 19:52 50.89951 -0.13527 9927 ft 270 kts 117°
2026-05-04 19:52 50.89120 -0.10915 9843 ft 258 kts 117°
2026-05-04 19:52 50.88436 -0.08348 9565 ft 251 kts 107°
2026-05-04 19:52 50.88295 -0.05611 9119 ft 251 kts 83°
2026-05-04 19:53 50.88878 -0.03025 8673 ft 251 kts 58°
2026-05-04 19:53 50.90071 -0.01074 8288 ft 250 kts 34°
2026-05-04 19:53 50.91671 -0.00062 7909 ft 248 kts
2026-05-04 19:53 50.93389 -0.00169 7513 ft 245 kts 346°
2026-05-04 19:54 50.94896 -0.01332 7144 ft 244 kts 322°
2026-05-04 19:54 50.95988 -0.03378 6990 ft 244 kts 298°
2026-05-04 19:54 50.96574 -0.05917 6976 ft 245 kts 285°
2026-05-04 19:54 50.96969 -0.08518 6975 ft 245 kts 283°
2026-05-04 19:55 50.97343 -0.11163 6972 ft 245 kts 283°
2026-05-04 19:55 50.97722 -0.13808 6972 ft 245 kts 283°
2026-05-04 19:55 50.98106 -0.16449 6968 ft 245 kts 283°
2026-05-04 19:55 50.98606 -0.19036 6973 ft 245 kts 296°
2026-05-04 19:56 50.99492 -0.21295 6994 ft 244 kts 306°
2026-05-04 19:56 51.00515 -0.23452 6986 ft 244 kts 308°
2026-05-04 19:56 51.01559 -0.25595 6589 ft 246 kts 308°
2026-05-04 19:56 51.02596 -0.27726 6366 ft 239 kts 308°
2026-05-04 19:57 51.03584 -0.29769 6200 ft 227 kts 308°
2026-05-04 19:57 51.04528 -0.31728 6005 ft 220 kts 308°
2026-05-04 19:57 51.05454 -0.33654 5695 ft 218 kts 309°
2026-05-04 19:57 51.06345 -0.35514 5557 ft 208 kts 309°
2026-05-04 19:58 51.07198 -0.37297 5455 ft 197 kts 309°
2026-05-04 19:58 51.08005 -0.38984 5358 ft 186 kts 309°
2026-05-04 19:58 51.08775 -0.40593 5217 ft 179 kts 309°
2026-05-04 19:58 51.09568 -0.42104 5022 ft 177 kts 320°
2026-05-04 19:59 51.10656 -0.42885 4753 ft 173 kts 359°
2026-05-04 19:59 51.11737 -0.42276 4440 ft 171 kts 46°
2026-05-04 19:59 51.12195 -0.40577 4220 ft 168 kts 81°
2026-05-04 19:59 51.12018 -0.38733 3950 ft 170 kts 109°
2026-05-04 20:00 51.11413 -0.37108 3699 ft 171 kts 129°
2026-05-04 20:00 51.10402 -0.36124 3445 ft 176 kts 164°
2026-05-04 20:00 51.09193 -0.35964 3206 ft 177 kts 178°
2026-05-04 20:00 51.07967 -0.36034 3016 ft 174 kts 180°
2026-05-04 20:01 51.06709 -0.36147 3011 ft 188 kts 181°
2026-05-04 20:01 51.05379 -0.36262 2992 ft 193 kts 181°
2026-05-04 20:01 51.04030 -0.36375 2992 ft 193 kts 181°
2026-05-04 20:01 51.02687 -0.36493 2989 ft 193 kts 181°
2026-05-04 20:02 51.01356 -0.36605 2992 ft 193 kts 181°
2026-05-04 20:02 51.00010 -0.36721 2972 ft 193 kts 181°
2026-05-04 20:02 50.98663 -0.36839 2967 ft 193 kts 181°
2026-05-04 20:02 50.97315 -0.36959 2971 ft 193 kts 181°
2026-05-04 20:03 50.95987 -0.37082 2972 ft 193 kts 181°
2026-05-04 20:03 50.94645 -0.37201 2964 ft 193 kts 181°
2026-05-04 20:03 50.93303 -0.37319 2966 ft 193 kts 181°
2026-05-04 20:03 50.91959 -0.37439 2968 ft 193 kts 181°
2026-05-04 20:04 50.90613 -0.37558 2963 ft 193 kts 181°
2026-05-04 20:04 50.89257 -0.37678 2966 ft 194 kts 181°
2026-05-04 20:04 50.87927 -0.37794 2967 ft 194 kts 181°
2026-05-04 20:04 50.86581 -0.37914 2967 ft 194 kts 181°
2026-05-04 20:05 50.85235 -0.38030 2967 ft 193 kts 181°
2026-05-04 20:05 50.83890 -0.38154 2963 ft 194 kts 184°
2026-05-04 20:05 50.82651 -0.38959 2964 ft 197 kts 220°
2026-05-04 20:05 50.81970 -0.40791 2961 ft 196 kts 259°
2026-05-04 20:06 50.82134 -0.42869 2965 ft 191 kts 297°
2026-05-04 20:06 50.82930 -0.44475 2962 ft 187 kts 328°
2026-05-04 20:06 50.84123 -0.45223 2970 ft 183 kts 351°
2026-05-04 20:06 50.85386 -0.45465 2969 ft 182 kts 358°
2026-05-04 20:07 50.86223 -0.45557 2970 ft 182 kts 359°
2026-05-04 20:07 50.87911 -0.45724 2965 ft 183 kts 359°
2026-05-04 20:07 50.89178 -0.45793 2967 ft 181 kts
2026-05-04 20:07 50.90031 -0.45792 2969 ft 182 kts
2026-05-04 20:08 50.91296 -0.45804 2968 ft 182 kts
2026-05-04 20:08 50.92544 -0.45807 2967 ft 181 kts
2026-05-04 20:08 50.93810 -0.45802 2971 ft 182 kts
2026-05-04 20:08 50.95073 -0.45790 2971 ft 181 kts
2026-05-04 20:09 50.96336 -0.45775 2969 ft 181 kts
2026-05-04 20:09 50.97598 -0.45757 2967 ft 182 kts
2026-05-04 20:09 50.98867 -0.45739 2971 ft 182 kts
2026-05-04 20:09 51.00120 -0.45720 2971 ft 182 kts
2026-05-04 20:10 51.01391 -0.45701 2983 ft 182 kts
2026-05-04 20:10 51.02660 -0.45681 2991 ft 182 kts
2026-05-04 20:10 51.03931 -0.45662 2991 ft 182 kts
2026-05-04 20:10 51.05196 -0.45642 2993 ft 182 kts
2026-05-04 20:11 51.06468 -0.45622 2990 ft 182 kts
2026-05-04 20:11 51.07721 -0.45603 2986 ft 182 kts
2026-05-04 20:11 51.08988 -0.45583 2995 ft 182 kts
2026-05-04 20:11 51.10242 -0.45350 2987 ft 181 kts 20°
2026-05-04 20:12 51.11220 -0.44163 2991 ft 179 kts 57°
2026-05-04 20:12 51.11679 -0.42313 2722 ft 184 kts 75°
2026-05-04 20:12 51.11946 -0.40376 2489 ft 176 kts 77°
2026-05-04 20:12 51.12169 -0.38553 2323 ft 159 kts 77°
2026-05-04 20:13 51.12380 -0.36876 1995 ft 150 kts 77°
2026-05-04 20:13 51.12588 -0.35281 1663 ft 144 kts 76°
2026-05-04 20:13 51.12795 -0.33738 1403 ft 142 kts 76°
2026-05-04 20:13 51.13001 -0.32230 1327 ft 138 kts 76°
2026-05-04 20:14 51.13206 -0.30747 1223 ft 133 kts 76°
2026-05-04 20:14 51.13404 -0.29319 1173 ft 134 kts 76°
2026-05-04 20:14 51.13607 -0.27866 1109 ft 134 kts 76°
2026-05-04 20:14 51.13811 -0.26410 967 ft 135 kts 76°
2026-05-04 20:15 51.14013 -0.24953 781 ft 134 kts 76°
2026-05-04 20:15 51.14206 -0.23491 590 ft 136 kts 76°
2026-05-04 20:15 51.14402 -0.22042 414 ft 135 kts 76°
2026-05-04 20:15 51.14612 -0.20501 268 ft 144 kts 76°
2026-05-04 20:16 51.14813 -0.19046 215 ft 117 kts 77°
2026-05-04 20:16 51.14945 -0.18108 219 ft 53 kts 78°
2026-05-04 20:16 51.15013 -0.17597 221 ft 38 kts 78°
2026-05-04 20:16 51.15085 -0.17293 220 ft 17 kts 58°
2026-05-04 20:17 51.15148 -0.17204 219 ft 8 kts 24°
2026-05-04 20:17 51.15211 -0.17182 209 ft 10 kts
2026-05-04 20:17 51.15274 -0.17210 219 ft 9 kts 335°
2026-05-04 20:17 51.15278 -0.17213 218 ft 0 kts 335°
2026-05-04 20:20 51.15314 -0.17235 217 ft 12 kts 343°
2026-05-04 20:20 51.15412 -0.17270 218 ft 16 kts 348°
2026-05-04 20:20 51.15522 -0.17308 211 ft 17 kts 346°
2026-05-04 20:21 51.15608 -0.17265 213 ft 14 kts 68°
2026-05-04 20:21 51.15634 -0.17109 218 ft 15 kts 78°
2026-05-04 20:21 51.15805 -0.17080 212 ft 15 kts 354°
2026-05-04 20:22 51.15909 -0.17045 220 ft 16 kts 32°
2026-05-04 20:22 51.15955 -0.16968 218 ft 3 kts 59°
2026-05-04 20:22 51.15968 -0.16922 218 ft 6 kts 70°
2026-05-04 20:22 51.15965 -0.16890 220 ft 1 kts 130°
2026-05-04 20:23 51.15933 -0.16862 218 ft 8 kts 159°
2026-05-04 20:23 51.15901 -0.16853 216 ft 2 kts 170°
2026-05-04 20:23 51.15899 -0.16852 216 ft 0 kts 170°